Minneapolis Crystal, MN

5:19 AM CDT on March 24, 2017 (GMT -0500)
Crystal

Weather History for KMIC - June, 2013

Change the Weather History Date:

Monday, June 24, 2013

  Actual Average Record
Temperature  
Mean Temperature 72 °F -  
Max Temperature 82 °F 77 °F 88 °F (2003)
Min Temperature 62 °F 57 °F 48 °F (2004)
Cooling Degree Days 7    
Growing Degree Days 22 (Base 50)    
Moisture  
Dew Point 65 °F    
Average Humidity 76    
Maximum Humidity 94    
Minimum Humidity 54    
Precipitation  
Precipitation 0.00 in - - ()
Sea Level Pressure  
Sea Level Pressure 29.84 in    
Wind  
Wind Speed 2 mph (SSE)    
Max Wind Speed 9 mph    
Max Gust Speed -    
Visibility 10 miles    
Events      
Averages and records for this station are not official NWS values.
T = Trace of Precipitation, MM = Missing Value Source: NWS Daily Summary

Daily Weather History Graph

Daily Weather History Graph

Search for Another Location

Airport or City:

Trip Planner

Search our weather history database for the weather conditions in past years. The results will help you decide how hot, cold, wet, or windy it might be!

Date:

Astronomy

Jun. 24, 2013 Rise Set
Actual Time 5:27 AM CDT 9:04 PM CDT
Civil Twilight 4:49 AM CDT 9:41 PM CDT
Nautical Twilight 3:59 AM CDT 10:31 PM CDT
Astronomical Twilight 2:53 AM CDT 11:37 PM CDT
Moon 10:00 PM CDT 7:00 AM CDT
Length of Visible Light 16h 52m
Length of Day
15h 37m
Full, 98% of the Moon is Illuminated
Jun 24
Full
Jun 29
Last Quarter
Jul 8
New
Jul 15
First Quarter
Jul 22
Full

Hourly Weather History & Observations

Time (CDT) Temp. Heat Index Dew Point Humidity Pressure Visibility Wind Dir Wind Speed Gust Speed Precip Events Conditions
12:53 AM 68.0 °F - 63.0 °F 84% 29.87 in 10.0 mi Calm Calm - N/A   Clear
1:53 AM 66.0 °F - 63.0 °F 90% 29.88 in 10.0 mi Calm Calm - N/A   Clear
2:53 AM 64.9 °F - 62.1 °F 90% 29.87 in 10.0 mi Calm Calm - N/A   Clear
3:53 AM 64.9 °F - 63.0 °F 93% 29.86 in 9.0 mi Calm Calm - N/A   Clear
4:53 AM 63.0 °F - 61.0 °F 93% 29.87 in 6.0 mi Calm Calm - N/A   Clear
5:04 AM 62.6 °F - 60.8 °F 94% 29.88 in 2.5 mi Calm Calm - N/A   Clear
5:11 AM 62.6 °F - 60.8 °F 94% 29.89 in 10.0 mi Calm Calm - N/A   Clear
5:53 AM 63.0 °F - 61.0 °F 93% 29.87 in 10.0 mi Calm Calm - N/A   Clear
7:53 AM 73.0 °F - 64.0 °F 73% 29.88 in 10.0 mi SSE 4.6 mph - N/A   Clear
8:53 AM 78.1 °F - 62.1 °F 58% 29.86 in 10.0 mi Calm Calm - N/A   Clear
9:53 AM 79.0 °F - 61.0 °F 54% 29.88 in 10.0 mi ESE 3.5 mph - N/A   Clear
10:53 AM 81.0 °F 82.2 °F 63.0 °F 54% 29.87 in 10.0 mi ESE 5.8 mph - N/A   Clear
11:53 AM 82.0 °F 83.4 °F 64.0 °F 54% 29.85 in 10.0 mi Variable 4.6 mph - N/A   Clear
12:53 PM 82.0 °F 84.5 °F 66.9 °F 60% 29.85 in 10.0 mi SE 8.1 mph - N/A   Scattered Clouds
1:53 PM 81.0 °F 83.8 °F 68.0 °F 65% 29.83 in 10.0 mi SE 8.1 mph - N/A   Partly Cloudy
2:53 PM 78.1 °F - 69.1 °F 74% 29.80 in 10.0 mi South 9.2 mph - N/A   Mostly Cloudy
3:46 PM 77.0 °F - 69.8 °F 78% 29.82 in 9.0 mi South 9.2 mph - N/A   Mostly Cloudy
3:53 PM 77.0 °F - 69.1 °F 76% 29.81 in 9.0 mi South 5.8 mph - N/A   Mostly Cloudy
4:53 PM 77.0 °F - 69.1 °F 76% 29.82 in 10.0 mi SSE 6.9 mph - N/A   Overcast
5:37 PM 77.0 °F - 69.8 °F 78% 29.81 in 10.0 mi South 4.6 mph - N/A   Mostly Cloudy
5:53 PM 78.1 °F - 68.0 °F 71% 29.81 in 10.0 mi SSW 6.9 mph - N/A   Scattered Clouds
6:53 PM 77.0 °F - 64.9 °F 66% 29.81 in 10.0 mi North - - N/A   Clear
7:53 PM 75.0 °F - 66.0 °F 73% 29.79 in 10.0 mi South 5.8 mph - N/A   Clear
8:53 PM 73.9 °F - 64.9 °F 73% 29.79 in 10.0 mi South 4.6 mph - N/A   Clear
9:53 PM 72.0 °F - 64.9 °F 78% 29.80 in 10.0 mi South 4.6 mph - N/A   Clear
10:53 PM 69.1 °F - 64.9 °F 87% 29.81 in 10.0 mi Calm Calm - N/A   Clear
11:53 PM 70.0 °F - 64.0 °F 81% 29.81 in 10.0 mi SE 4.6 mph - N/A   Clear